Terug naar catalogus

STARLINK-30605

ActiefCommunicatieVLEO
NORAD 58101·PAYLOAD·🇺🇸 United States

Gelanceerd Oct 21, 2023 vanaf Vandenberg Space Force Base

Loading…

Volgende Passages (komende 24 uur)

TLE

VersSource: CelesTrak SupGP

Epoch: Sep 15, 2026, 01:42 UTC

1 58101C 23161E   26258.07131944  .00036846  00000+0  10880-2 0  2583
2 58101  53.1602   3.3137 0001254  73.3208 260.4758 15.34390702    13

Volg STARLINK-30605 in realtime met AllMySat

Download on the App Store